Time,TemperatureF,DewpointF,PressureIn,WindDirection,WindDirectionDegrees,WindSpeedMPH,WindSpeedGustMPH,Humidity,HourlyPrecipIn,Conditions,Clouds,dailyrainin,SoftwareType,DateUTC
2013-02-04 13:35:00,28.0,10.8,29.75,ENE,58,4.0,4.0,48,0.00,,,0.00,Wunderground v.1.15,2013-02-04 18:35:00,
2013-02-04 13:40:00,28.7,11.0,29.75,ENE,72,4.0,5.0,47,0.00,,,0.00,Wunderground v.1.15,2013-02-04 18:40:00,
2013-02-04 13:45:00,29.3,10.6,29.76,NE,42,5.0,5.0,45,0.00,,,0.00,Wunderground v.1.15,2013-02-04 18:45:00,
2013-02-04 14:10:00,29.0,11.3,29.76,NE,51,5.0,10.0,47,0.00,,,0.00,Wunderground v.1.15,2013-02-04 19:10:00,
2013-02-04 14:20:00,28.1,10.9,29.76,NE,36,7.0,7.0,48,0.00,,,0.00,Wunderground v.1.15,2013-02-04 19:20:00,
2013-02-04 14:30:00,28.2,9.0,29.77,North,360,5.0,6.0,44,0.00,,,0.00,Wunderground v.1.15,2013-02-04 19:30:00,
2013-02-04 14:35:00,28.2,8.5,29.77,ESE,107,6.0,6.0,43,0.00,,,0.00,Wunderground v.1.15,2013-02-04 19:35:00,
2013-02-04 14:45:00,28.2,7.5,29.77,NNE,28,7.0,10.0,41,0.00,,,0.00,Wunderground v.1.15,2013-02-04 19:45:00,
2013-02-04 14:55:00,29.1,8.3,29.78,NNE,32,6.0,7.0,41,0.00,,,0.00,Wunderground v.1.15,2013-02-04 19:55:00,
2013-02-04 15:05:00,29.8,7.2,29.78,NE,53,7.0,10.0,38,0.00,,,0.00,Wunderground v.1.15,2013-02-04 20:05:00,
2013-02-04 15:10:00,29.7,7.7,29.78,NNE,24,8.0,8.0,39,0.00,,,0.00,Wunderground v.1.15,2013-02-04 20:10:00,
2013-02-04 15:20:00,29.8,8.4,29.78,NE,56,6.0,6.0,40,0.00,,,0.00,Wunderground v.1.15,2013-02-04 20:20:00,
2013-02-04 15:30:00,29.1,8.3,29.78,NE,55,6.0,6.0,41,0.00,,,0.00,Wunderground v.1.15,2013-02-04 20:30:00,
2013-02-04 15:35:00,29.1,8.8,29.77,NE,46,6.0,6.0,42,0.00,,,0.00,Wunderground v.1.15,2013-02-04 20:35:00,
2013-02-04 15:45:00,29.4,8.0,29.77,NNE,21,5.0,5.0,40,0.00,,,0.00,Wunderground v.1.15,2013-02-04 20:45:00,
2013-02-04 15:55:00,28.9,7.6,29.78,NE,34,7.0,8.0,40,0.00,,,0.00,Wunderground v.1.15,2013-02-04 20:55:00,
2013-02-04 16:05:00,28.8,8.0,29.78,NNE,19,6.0,7.0,41,0.00,,,0.00,Wunderground v.1.15,2013-02-04 21:05:00,
2013-02-04 16:15:00,28.4,8.2,29.78,NE,53,6.0,6.0,42,0.00,,,0.00,Wunderground v.1.15,2013-02-04 21:15:00,
2013-02-04 16:25:00,27.6,8.0,29.78,NNE,32,7.0,9.0,43,0.00,,,0.00,Wunderground v.1.15,2013-02-04 21:25:00,
2013-02-04 16:30:00,27.3,7.7,29.78,NNE,13,7.0,7.0,43,0.00,,,0.00,Wunderground v.1.15,2013-02-04 21:30:00,
2013-02-04 16:40:00,26.9,6.8,29.79,East,80,8.0,8.0,42,0.00,,,0.00,Wunderground v.1.15,2013-02-04 21:40:00,